AirNav   Phillips 66 Aviation Fuel
 
 1568 users online  

WS42 Owen-Withee Airport
Withee, Wisconsin, USA

GOING TO WITHEE?


FAA INFORMATION EFFECTIVE 29 MARCH 2018

Location

FAA Identifier: WS42
Lat/Long: 44-56-59.8860N / 090-36-00.4870W
44-56.998100N / 090-36.008117W
44.9499683 / -90.6001353
(estimated)
Elevation: 1286 ft. / 392 m (estimated)
Variation: 01E (1985)
From city: 1 mile S of WITHEE, WI
Time zone: UTC -5 (UTC -6 during Standard Time)
Zip code: 54498

Airport Operations

Airport use: Private use. Permission required prior to landing
Activation date: 06/1987
Control tower: no
ARTCC: MINNEAPOLIS CENTER
FSS: GREEN BAY FLIGHT SERVICE STATION
Attendance: UNATNDD
Wind indicator: yes
Segmented circle: no

Airport Communications

WX AWOS-3 at MDZ (16 nm NE): 119.025 (715-678-6030)

Nearby radio navigation aids

VOR radial/distance  VOR name  Freq  Var
EAUr081/37.4EAU CLAIRE VORTAC112.9004E

 
NDB name  Hdg/Dist  Freq  Var  ID
NEILLSVILLE352/23.836801WVIQ ...- .. --.-
MARSHFIELD317/25.539100EMFI -- ..-. ..
RUSK COUNTY153/37.235600WRCX .-. -.-. -..-

Airport Services

Airframe service: NONE
Powerplant service: NONE

Runway Information

Runway E/W

Dimensions: 2600 x 100 ft. / 792 x 30 m
Surface: turf
RUNWAY E  RUNWAY W
Traffic pattern: leftleft
Obstructions: pline, marked, 40 ft. from runwaynone

Airport Ownership and Management from official FAA records

Ownership: Privately-owned
Owner: ROLAND MISFELDT
W5799 OAK RD
WITHEE, WI 54498
Phone 715-229-4482
Manager: Phone 715-229-4160

Airport Operational Statistics

Aircraft based on the field: 2
Single engine airplanes: 2
    

Additional Remarks

OWNER DESIRES ARPT NOT BE CHARTED.

Instrument Procedures

There are no published instrument procedures at WS42.

Some nearby airports with instrument procedures:

KMDZ - Taylor County Airport (16 nm NE)
KVIQ - Neillsville Municipal Airport (24 nm S)
KMFI - Marshfield Municipal Airport (26 nm SE)
KRCX - Rusk County Airport (37 nm NW)
KEAU - Chippewa Valley Regional Airport (38 nm W)
 
Loc | Ops | Rwys | IFR | FBO | Links
Com | Nav | Svcs | Stats | Notes

AirNav Hotels Sweepstakes
 
Area around WS42 (Owen-Withee Airport)
 
Road maps at: MapQuest Bing Google
 
Aerial photo
No photo
 
Sectional chart

 
Airport distance calculator
Flying to Owen-Withee Airport? Find the distance to fly.

From to WS42

Sunrise and sunset
Times for 19-Apr-2018
 Local
(UTC-5)
 Zulu
(UTC)
Morning civil twilight05:4110:41
Sunrise06:1211:12
Sunset19:5100:51
Evening civil twilight20:2201:22

Current date and time
Zulu (UTC)  19-Apr-2018 16:47:31
Local (UTC-5)  19-Apr-2018 11:47:31
 
METAR
KMDZ 
16nm NE 
191635Z AUTO 35005KT 10SM CLR 06/M08 A3036 RMK AO2 T00591085
KMFI 
26nm SE 
191554Z AUTO 33009KT 10SM CLR 03/M06 A3036 RMK AO2 SLP295 T00331061 TSNO
TAF
KEAU 
37nm W 
191120Z 1912/2012 31003KT P6SM SCT250 FM192300 00000KT P6SM SKC FM200900 00000KT 3SM BR SCT150 FM201000 00000KT 3/4SM BR SCT002
KCWA 
41nm E 
191127Z 1912/2012 32007KT P6SM SCT250 FM192300 VRB03KT P6SM SCT250 TEMPO 2008/2012 3SM BR
KAUW 
42nm E 
191127Z 1912/2012 32007KT P6SM SCT250 FM192300 VRB03KT P6SM SCT250 TEMPO 2008/2012 3SM BR
NOTAMs
Click for the latest NOTAMs
NOTAMs are issued by the DoD/FAA and will open in a separate window not controlled by AirNav.

 

 
 

Would you like to see your business listed on this page?

 If your business provides an interesting product or service to pilots, flight crews, aircraft, or users of the Owen-Withee Airport, you should consider listing it here.  To start the listing process, click on the button below
 
Add a business
 

Other Pages about Owen-Withee Airport

Update a link
 
Copyright © AirNav, LLC. All rights reserved. Privacy Policy  Contact